Regional Weather Roundup
Issued by NWS

Home | Current Version | Previous Version | Graphics & Text | Print | Product List | Glossary On
Versions: 1 2 3 4 5 6 7 8 9 10 11 12 13 14 15 16 17 18 19 20 21 22 23 24 25 26 27
000
ASUS45 KBOU 240307
RWRCO

WEATHER ROUNDUP FOR COLORADO
NATIONAL WEATHER SERVICE DENVER/BOULDER CO
800 PM MST THU FEB 23 2017

NOTE: "FAIR" INDICATES FEW OR NO CLOUDS BELOW 12000 FEET WITH NO
SIGNIFICANT WEATHER AND/OR OBSTRUCTIONS TO VISIBILITY.

COZ001>005-013-030-031-240400-
...NORTHWEST COLORADO...

CITY           SKY/WX    TMP DP  RH WIND       PRES   REMARKS
CRAIG          CLOUDY    22  16  78 SW12      29.73S WCI  10
HAYDEN         MOCLDY    21  16  79 NW6       29.72S WCI  14
MEEKER         CLOUDY    23  21  92 S6        29.74R WCI  16
MOUNT WERNER   NOT AVBL
STEAMBOAT SPGS CLOUDY    20  19  93 SW3       29.71R VSB 1/2
WALDEN         NOT AVBL
$$

COZ006>008-011-240400-
...WEST CENTRAL VALLEYS...

CITY           SKY/WX    TMP DP  RH WIND       PRES   REMARKS
GRAND JUNCTION FAIR      28  23  81 W5        29.79R WCI  23
MONTROSE       FAIR      30   5  34 W5        29.79R WCI  25
EAGLE          MOCLDY    25  14  63 S3        29.75S
RIFLE          CLOUDY    28  22  78 NW6       29.77R WCI  22
DELTA          FAIR      35  10  34 W13       29.77S WCI  26
NUCLA          FAIR      30   7  37 CALM      29.81S
$$

COZ017>023-064>068-240400-
...SOUTHWEST COLORADO...

CITY           SKY/WX    TMP DP  RH WIND       PRES   REMARKS
DURANGO        FAIR      26   3  37 W7        29.77R WCI  18
CORTEZ         FAIR      23  12  62 S5        29.78S WCI  17
PAGOSA SPRINGS FAIR      22  -1  36 CALM      29.76R
TELLURIDE      MOCLDY    14  11  90 SE5       29.75F WCI   6
WOLF CREEK PAS FAIR       1  -6  71 SW8G17    29.69S WCI -12
$$

COZ009-010-012-014-032>034-037-058>063-240400-
...CENTRAL COLORADO...

CITY           SKY/WX    TMP DP  RH WIND       PRES   REMARKS
ASPEN          MOCLDY    15   8  73 S3        29.69F
BUENA VISTA    CLOUDY    22   2  42 W3        29.70S
COPPER MTN     LGT SNOW   5   0  78 MISG      29.58S VSB 3/4
BERTHOUD PASS  MOCLDY    -4 -13  65 NW21      29.53F HAZE    WCI -28
COTTONWOOD PAS LGT SNOW  16   5  62 NW5G18    29.65S WCI   9
GUNNISON       FAIR      15   8  73 SE5       29.73S WCI   8
KREMMLING      CLOUDY    23  16  74 E3        29.71S
LEADVILLE      FAIR       5  -1  76 N7        29.63R WCI  -7
MONARCH PASS   CLOUDY     3   0  85 W28G40    29.68S WCI -21
SALIDA         MOCLDY    25   8  49 NW6       29.78F WCI  18
SUNLIGHT       NOT AVBL
WILKERSON PASS FAIR       7  -6  56 W7        29.62S WCI  -5
$$

COZ069>075-240400-
...SAN LUIS VALLEY/SANGRE DE CRISTO MOUNTAINS...

CITY           SKY/WX    TMP DP  RH WIND       PRES   REMARKS
ALAMOSA        FAIR      23   7  50 NW5       29.73R WCI  17
LA VETA PASS   FAIR      16   1  53 SW16G30   29.65R WCI   0
SAGUACHE       FAIR      18  10  73 N8        29.73S WCI   7
$$

COZ035-036-038>040-240400-
...NORTHERN COLORADO FRONT RANGE...

CITY           SKY/WX    TMP DP  RH WIND       PRES   REMARKS
DENVER INTL AP FLURRIES  19  14  81 N12       29.82R WCI   7
DMNS CITY PARK   N/A     20  13  76 N6G13     29.85R WCI  12
AURORA         LGT SNOW  18  16  91 N13       29.82R FOG     WCI   4
FRONT RANGE AP NOT AVBL
ERIE MUNI ARPT LGT SNOW  21  17  86 N3        29.85R
BOULDER MUN AP LGT SNOW  21  19  93 CALM      29.85R
CENTENNIAL     LGT SNOW  18  15  88 N13       29.80R FOG     WCI   5
BROOMFIELD     LGT SNOW  19  16  86 N6        29.84R WCI  11
FORT COLLINS   CLOUDY    21  15  78 N15       29.86R WCI   8
LONGMONT       LGT SNOW  24  18  80 N5        29.88R WCI  18
$$

COZ041-046-047-076>085-087-088-240400-
...PIKES PEAK/PALMER DIVIDE AND SOUTHERN FOOTHILLS...

CITY           SKY/WX    TMP DP  RH WIND       PRES   REMARKS
COLO. SPRINGS  FAIR      22  12  65 N22G33    29.71R WCI   6
A. F. ACADEMY  FLURRIES  19  13  76 N21G29    29.72R WCI   3
SCHRIEVER AFB  FAIR      20  13  75 N22G32    29.71R WCI   4
ELLICOTT       FAIR     N/A N/A N/A N20G25    29.70R
FALCON         FAIR      18  11  76 N23       29.70R WCI   0
FORT CARSON    FAIR      24  13  61 N22G29    29.71R WCI   9
LIMON          CLOUDY    20  18  92 N26       29.75R WCI   2
MONUMENT HILL  LGT SNOW  14  12  92 N10       29.75R WCI   1
TRINIDAD       FAIR      32   6  33 NW10      29.71R WCI  24
$$

COZ042>045-048>051-090-091-240400-
...NORTHEAST COLORADO...

CITY           SKY/WX    TMP DP  RH WIND       PRES   REMARKS
GREELEY ARPT   MOCLDY    21  15  78 N14       29.87R WCI   8
AKRON          CLOUDY    20  16  84 N17       29.79R WCI   5
BURLINGTON     CLOUDY    25  21  85 N17       29.75R WCI  12
WRAY           NOT AVBL
STERLING       CLOUDY    23  21  93 N13       29.82R WCI  11
HOLYOKE        LGT SNOW  27  23  86 N10       29.80R WCI  17
FORT MORGAN    FAIR      20  16  86 N13       29.84R WCI   7
$$

COZ086-089-092>099-240400-
...SOUTHEAST COLORADO...

CITY           SKY/WX    TMP DP  RH WIND       PRES   REMARKS
PUEBLO         CLOUDY    31  18  58 NE23G30   29.74R WCI  18
LA JUNTA       CLOUDY    34  24  67 N21G28    29.75R WCI  22
LAMAR          CLOUDY    32  23  69 N17G26    29.73R WCI  21
SPRINGFIELD      N/A     33  28  81 N24       29.69R WCI  20
$$




USA.gov is the U.S. government's official web portal to all federal, state and local government web resources and services.